When you browse on this site, cookies collect data to enhance your experience and personalize the content and advertising you see.
Visit our Privacy Policy to learn more. By continuing to use the site, you agree to this use of cookies and data.
  • In Hungary
  • List of Countries
  • For 7 days
  • Water Temperature
  • Satellite Maps
  • Weather Map
  • News
  • Weather Widgets
  • user-avatar
    Login

    Hourly Weather Tskhaltubo

    Today, 23 January, Wednesday

    Time Temperature Precipitation Wind Pressure Humidity
    00:00 +5°C° 0.1 mm 1 mps 748 mmHg 83%
    01:00 +5°C° 0 mm 1 mps 748 mmHg 80%
    02:00 +4°C° 0 mm 2 mps 747 mmHg 78%
    03:00 +4°C° 0 mm 2 mps 747 mmHg 70%
    04:00 +4°C° 0 mm 2 mps 747 mmHg 68%
    05:00 +4°C° 0 mm 2 mps 746 mmHg 66%
    06:00 +3°C° 0 mm 2 mps 746 mmHg 64%
    07:00 +4°C° 0 mm 2 mps 746 mmHg 61%
    08:00 +5°C° 0 mm 2 mps 746 mmHg 57%
    09:00 +6°C° 0 mm 2 mps 747 mmHg 55%
    10:00 +7°C° 0 mm 3 mps 746 mmHg 51%
    11:00 +9°C° 0 mm 3 mps 746 mmHg 48%
    12:00 +11°C° 0 mm 3 mps 745 mmHg 44%
    13:00 +11°C° 0 mm 3 mps 745 mmHg 44%
    14:00 +11°C° 0 mm 3 mps 745 mmHg 43%
    15:00 +9°C° 0 mm 5 mps 745 mmHg 43%
    16:00 +8°C° 0 mm 4 mps 746 mmHg 47%
    17:00 +7°C° 0 mm 4 mps 746 mmHg 50%
    18:00 +6°C° 0 mm 4 mps 746 mmHg 54%
    19:00 +6°C° 0 mm 4 mps 747 mmHg 54%
    20:00 +5°C° 0 mm 4 mps 747 mmHg 54%
    21:00 +5°C° 0 mm 4 mps 747 mmHg 54%
    22:00 +5°C° 0 mm 4 mps 747 mmHg 54%
    23:00 +5°C° 0 mm 4 mps 747 mmHg 54%

    Tomorrow, 24 January, Thursday

    Time Temperature Precipitation Wind Pressure Humidity
    00:00 +4°C° 0 mm 4 mps 747 mmHg 54%
    01:00 +4°C° 0 mm 4 mps 747 mmHg 53%
    02:00 +4°C° 0 mm 4 mps 747 mmHg 53%
    03:00 +4°C° 0 mm 4 mps 747 mmHg 53%
    04:00 +4°C° 0 mm 4 mps 747 mmHg 52%
    05:00 +4°C° 0 mm 4 mps 746 mmHg 52%
    06:00 +4°C° 0 mm 4 mps 746 mmHg 51%
    07:00 +5°C° 0 mm 4 mps 746 mmHg 50%
    08:00 +5°C° 0 mm 4 mps 746 mmHg 48%
    09:00 +6°C° 0 mm 4 mps 745 mmHg 47%
    10:00 +7°C° 0 mm 4 mps 745 mmHg 43%
    11:00 +9°C° 0 mm 5 mps 744 mmHg 40%
    12:00 +12°C° 0 mm 5 mps 743 mmHg 37%
    13:00 +12°C° 0 mm 5 mps 743 mmHg 37%
    14:00 +13°C° 0 mm 4 mps 742 mmHg 37%
    15:00 +13°C° 0 mm 4 mps 742 mmHg 37%
    16:00 +12°C° 0 mm 4 mps 742 mmHg 40%
    17:00 +10°C° 0 mm 4 mps 743 mmHg 43%
    18:00 +8°C° 0 mm 4 mps 743 mmHg 46%
    19:00 +8°C° 0 mm 4 mps 743 mmHg 45%
    20:00 +7°C° 0 mm 4 mps 743 mmHg 44%
    21:00 +7°C° 0 mm 4 mps 743 mmHg 42%
    22:00 +6°C° 0 mm 4 mps 743 mmHg 43%
    23:00 +6°C° 0 mm 4 mps 743 mmHg 43%

    Day after tomorrow, 25 January, Friday

    Time Temperature Precipitation Wind Pressure Humidity
    00:00 +6°C° 0 mm 4 mps 743 mmHg 43%
    01:00 +6°C° 0 mm 4 mps 743 mmHg 44%
    02:00 +6°C° 0 mm 4 mps 743 mmHg 45%
    03:00 +6°C° 0 mm 4 mps 743 mmHg 46%
    04:00 +7°C° 0 mm 3 mps 743 mmHg 47%
    05:00 +7°C° 0 mm 3 mps 743 mmHg 47%
    06:00 +7°C° 0 mm 3 mps 743 mmHg 48%
    07:00 +7°C° 0 mm 3 mps 743 mmHg 49%
    08:00 +8°C° 0 mm 3 mps 743 mmHg 50%
    09:00 +8°C° 0 mm 3 mps 743 mmHg 50%
    10:00 +9°C° 0 mm 2 mps 743 mmHg 46%
    11:00 +12°C° 0 mm 2 mps 743 mmHg 42%
    12:00 +14°C° 0 mm 2 mps 742 mmHg 39%
    13:00 +14°C° 0 mm 1 mps 742 mmHg 39%
    14:00 +14°C° 0 mm 1 mps 742 mmHg 40%
    15:00 +14°C° 0 mm 1 mps 742 mmHg 41%
    16:00 +13°C° 0 mm 1 mps 743 mmHg 47%
    17:00 +12°C° 0 mm 1 mps 743 mmHg 52%
    18:00 +9°C° 0 mm 2 mps 744 mmHg 58%
    19:00 +9°C° 0 mm 2 mps 744 mmHg 58%
    20:00 +8°C° 0 mm 2 mps 744 mmHg 59%
    21:00 +8°C° 0 mm 2 mps 744 mmHg 60%
    22:00 +8°C° 0 mm 3 mps 744 mmHg 58%
    23:00 +8°C° 0 mm 3 mps 744 mmHg 56%

    26 January, Saturday

    Time Temperature Precipitation Wind Pressure Humidity
    00:00 +7°C° 0 mm 3 mps 744 mmHg 54%
    01:00 +7°C° 0 mm 3 mps 744 mmHg 53%
    02:00 +7°C° 0 mm 3 mps 744 mmHg 51%
    03:00 +7°C° 0 mm 3 mps 744 mmHg 50%
    04:00 +7°C° 0 mm 3 mps 743 mmHg 50%
    05:00 +7°C° 0 mm 3 mps 743 mmHg 49%
    06:00 +6°C° 0 mm 4 mps 743 mmHg 49%
    07:00 +7°C° 0 mm 4 mps 743 mmHg 48%
    08:00 +7°C° 0 mm 4 mps 743 mmHg 46%
    09:00 +8°C° 0 mm 4 mps 743 mmHg 45%
    10:00 +10°C° 0 mm 4 mps 742 mmHg 42%
    11:00 +12°C° 0 mm 4 mps 742 mmHg 39%
    12:00 +13°C° 0 mm 4 mps 742 mmHg 36%
    13:00 +13°C° 0 mm 4 mps 742 mmHg 37%
    14:00 +13°C° 0 mm 4 mps 742 mmHg 38%
    15:00 +13°C° 0 mm 4 mps 742 mmHg 39%
    16:00 +12°C° 0 mm 4 mps 742 mmHg 42%
    17:00 +11°C° 0 mm 4 mps 742 mmHg 45%
    18:00 +10°C° 0 mm 4 mps 742 mmHg 49%
    19:00 +10°C° 0 mm 4 mps 742 mmHg 49%
    20:00 +8°C° 0 mm 4 mps 743 mmHg 50%
    21:00 +8°C° 0 mm 4 mps 743 mmHg 50%
    22:00 +7°C° 0 mm 4 mps 743 mmHg 51%
    23:00 +7°C° 0 mm 4 mps 742 mmHg 52%

    27 January, Sunday

    Time Temperature Precipitation Wind Pressure Humidity
    00:00 +7°C° 0 mm 4 mps 742 mmHg 53%
    01:00 +7°C° 0 mm 4 mps 742 mmHg 53%
    02:00 +7°C° 0 mm 4 mps 742 mmHg 53%
    03:00 +7°C° 0 mm 5 mps 741 mmHg 53%
    04:00 +7°C° 0 mm 4 mps 741 mmHg 53%
    05:00 +7°C° 0 mm 4 mps 741 mmHg 53%
    06:00 +7°C° 0 mm 4 mps 740 mmHg 53%
    07:00 +7°C° 0 mm 5 mps 740 mmHg 51%
    08:00 +8°C° 0 mm 5 mps 740 mmHg 50%
    09:00 +8°C° 0 mm 5 mps 739 mmHg 48%
    10:00 +10°C° 0 mm 5 mps 739 mmHg 45%
    11:00 +12°C° 0 mm 5 mps 738 mmHg 42%
    12:00 +14°C° 0 mm 5 mps 737 mmHg 39%
    13:00 +14°C° 0 mm 5 mps 737 mmHg 41%
    14:00 +14°C° 0 mm 5 mps 736 mmHg 42%
    15:00 +13°C° 0 mm 5 mps 736 mmHg 43%
    16:00 +12°C° 0.1 mm 4 mps 736 mmHg 49%
    17:00 +11°C° 0.1 mm 4 mps 737 mmHg 54%
    18:00 +10°C° 0.1 mm 3 mps 737 mmHg 59%
    19:00 +10°C° 0.2 mm 3 mps 738 mmHg 62%
    20:00 +9°C° 0.2 mm 2 mps 738 mmHg 65%
    21:00 +9°C° 0.2 mm 2 mps 738 mmHg 67%
    22:00 +9°C° 0 mm 2 mps 739 mmHg 68%
    23:00 +8°C° 0 mm 3 mps 739 mmHg 68%

    28 January, Monday

    Time Temperature Precipitation Wind Pressure Humidity
    00:00 +8°C° 0 mm 3 mps 739 mmHg 69%
    01:00 +8°C° 0.1 mm 3 mps 739 mmHg 69%
    02:00 +8°C° 0.1 mm 3 mps 739 mmHg 69%
    03:00 +8°C° 0.1 mm 3 mps 740 mmHg 69%
    04:00 +8°C° 0.3 mm 3 mps 740 mmHg 69%
    05:00 +7°C° 0.3 mm 3 mps 740 mmHg 69%
    06:00 +7°C° 0.3 mm 3 mps 740 mmHg 69%
    07:00 +8°C° 0.3 mm 3 mps 740 mmHg 68%
    08:00 +8°C° 0.3 mm 3 mps 741 mmHg 67%
    09:00 +8°C° 0.3 mm 3 mps 741 mmHg 66%
    10:00 +9°C° 0.1 mm 2 mps 741 mmHg 62%
    11:00 +12°C° 0.1 mm 2 mps 740 mmHg 58%
    12:00 +13°C° 0.1 mm 2 mps 740 mmHg 54%
    13:00 +13°C° 0 mm 2 mps 740 mmHg 54%
    14:00 +13°C° 0 mm 1 mps 740 mmHg 55%
    15:00 +13°C° 0 mm 1 mps 739 mmHg 55%
    16:00 +12°C° 0 mm 1 mps 740 mmHg 61%
    17:00 +11°C° 0 mm 1 mps 741 mmHg 67%
    18:00 +10°C° 0 mm 1 mps 741 mmHg 74%
    19:00 +9°C° 0.1 mm 1 mps 742 mmHg 77%
    20:00 +9°C° 0.1 mm 1 mps 742 mmHg 81%
    21:00 +8°C° 0.1 mm 1 mps 743 mmHg 84%
    22:00 +8°C° 0.6 mm 1 mps 743 mmHg 86%
    23:00 +8°C° 0.6 mm 1 mps 743 mmHg 87%
    Show more